Lefor, ND

8:41 AM MST on February 07, 2016 (GMT -0700)
Dickinson Municipal

Weather History for KDIK - October, 2011

Change the Weather History Date:

Sunday, October 9, 2011

  Actual Average Record
Temperature  
Mean Temperature 43 °F 47 °F  
Max Temperature 52 °F 60 °F 90 °F (1910)
Min Temperature 33 °F 34 °F 6 °F (1897)
Degree Days  
Heating Degree Days 22 18  
Month to date heating degree days 58 149  
Since 1 July heating degree days 294 503  
Cooling Degree Days 0 0  
Month to date cooling degree days 16 0  
Year to date cooling degree days 358 418  
Moisture  
Dew Point 40 °F    
Average Humidity 82    
Maximum Humidity 100    
Minimum Humidity 63    
Precipitation  
Precipitation 0.01 in 0.04 in 1.37 in (1982)
Month to date precipitation 0.13 0.42  
Year to date precipitation 17.12 14.18  
Sea Level Pressure  
Sea Level Pressure 30.13 in    
Wind  
Wind Speed 5 mph (East)    
Max Wind Speed 14 mph    
Max Gust Speed 16 mph    
Visibility 8 miles    
Events Rain    
T = Trace of Precipitation, MM = Missing Value Source: NWS Daily Summary

Daily Weather History Graph

Daily Weather History Graph

Search for Another Location

Airport or City:

Trip Planner

Search our weather history database for the weather conditions in past years. The results will help you decide how hot, cold, wet, or windy it might be!

Date:

Astronomy

Oct. 09, 2011 Rise Set
Actual Time 7:00 AM MDT 6:15 PM MDT
Civil Twilight 6:30 AM MDT 6:46 PM MDT
Nautical Twilight 5:54 AM MDT 7:21 PM MDT
Astronomical Twilight 5:19 AM MDT 7:56 PM MDT
Moon 4:57 PM MDT (10/9) 4:41 AM MDT (10/9)
Length of Visible Light 12h 16m
Length of Day
11h 15m
Waxing Gibbous, 95% of the Moon is Illuminated
Oct 9
Waxing Gibbous
Oct 11
Full
Oct 19
Last Quarter
Oct 26
New
Nov 2
First Quarter

Hourly Weather History & Observations

Time (MDT) Temp. Windchill Dew Point Humidity Pressure Visibility Wind Dir Wind Speed Gust Speed Precip Events Conditions
12:56 AM 41.0 °F 38.0 °F 37.0 °F 86% 30.27 in 10.0 mi NNW 4.6 mph - N/A   Clear
1:56 AM 36.0 °F 33.3 °F 34.0 °F 93% 30.29 in 10.0 mi North 3.5 mph - N/A   Clear
2:56 AM 39.0 °F 36.8 °F 35.1 °F 86% 30.28 in 10.0 mi North 3.5 mph - N/A   Partly Cloudy
3:56 AM 33.1 °F - 30.9 °F 92% 30.30 in 10.0 mi Calm Calm - N/A   Mostly Cloudy
4:56 AM 42.1 °F - 37.0 °F 82% 30.28 in 10.0 mi Calm Calm - N/A   Overcast
5:56 AM 41.0 °F - 37.0 °F 86% 30.27 in 10.0 mi Calm Calm - N/A   Overcast
6:56 AM 39.9 °F 36.7 °F 37.9 °F 93% 30.28 in 10.0 mi SSE 4.6 mph - N/A   Overcast
8:56 AM 45.0 °F 42.6 °F 37.9 °F 76% 30.25 in 10.0 mi East 4.6 mph - N/A   Overcast
9:56 AM 48.0 °F - 39.9 °F 74% 30.24 in 10.0 mi ESE 8.1 mph - N/A   Overcast
10:56 AM 48.0 °F - 41.0 °F 77% 30.22 in 10.0 mi SE 9.2 mph - 0.00 in   Overcast
11:56 AM 48.0 °F - 42.1 °F 80% 30.22 in 10.0 mi SE 8.1 mph - 0.01 in Rain Light Rain
12:56 PM 51.1 °F - 41.0 °F 68% 30.18 in 10.0 mi ESE 6.9 mph - 0.00 in   Overcast
2:56 PM 51.1 °F - 39.0 °F 63% 30.12 in 10.0 mi East 10.4 mph - N/A   Overcast
3:22 PM 51.8 °F - 39.2 °F 62% 30.07 in 10.0 mi East 9.2 mph - N/A   Overcast
3:56 PM 51.1 °F - 39.9 °F 66% 30.12 in 10.0 mi East 9.2 mph - N/A   Overcast
4:56 PM 48.9 °F - 41.0 °F 74% 30.08 in 10.0 mi East 11.5 mph - N/A   Overcast
5:56 PM 48.0 °F - 43.0 °F 83% 30.07 in 10.0 mi East 8.1 mph - N/A   Overcast
6:37 PM 46.4 °F 43.5 °F 42.8 °F 87% 30.02 in 10.0 mi East 5.8 mph - N/A   Overcast
7:19 PM 46.4 °F 43.5 °F 42.8 °F 87% 30.01 in 10.0 mi East 5.8 mph - N/A   Overcast
7:42 PM 46.4 °F 42.9 °F 42.8 °F 87% 30.00 in 10.0 mi East 6.9 mph - N/A   Overcast
7:54 PM 46.4 °F 42.9 °F 42.8 °F 87% 29.99 in 10.0 mi East 6.9 mph - N/A   Overcast
9:52 PM 44.6 °F 43.1 °F 44.6 °F 100% 29.96 in 2.5 mi East 3.5 mph - N/A   Overcast
9:56 PM 45.0 °F 43.5 °F 44.1 °F 97% 29.99 in 2.0 mi East 3.5 mph - N/A   Overcast
10:03 PM 44.6 °F 42.2 °F 44.6 °F 100% 29.96 in 1.8 mi East 4.6 mph - N/A   Overcast
10:56 PM 45.0 °F - 45.0 °F 100% 29.97 in 1.5 mi Calm Calm - N/A   Overcast
11:56 PM 45.0 °F - 45.0 °F 100% 29.94 in 1.2 mi Calm Calm - N/A   Overcast